Regional Weather Roundup
Issued by NWS Mobile, AL

Home | Current Version | Previous Version | Text Only | Print | Product List | Glossary On
Versions: 1 2 3 4 5 6 7 8 9 10 11 12 13 14 15 16 17 18 19 20 21 22 23 24 25 26 27 28 29 30 31 32 33 34 35 36 37 38 39 40 41 42 43 44 45 46 47 48 49
000
ASUS44 KMOB 081712
RWRMOB
REGIONAL WEATHER ROUNDUP
NATIONAL WEATHER SERVICE MOBILE AL
1100 AM CST MON FEB 08 2016

NOTE: "FAIR" INDICATES FEW OR NO CLOUDS BELOW 12,000 FEET WITH NO
      SIGNIFICANT WEATHER AND/OR OBSTRUCTIONS TO VISIBILITY.

  * THESE STATIONS ARE PART OF THE UNIVERSITY OF SOUTH ALABAMA
    MESONET AND ARE NOT UNDER NWS OR FAA QUALITY CONTROL.

ALZ061>064-081800-
COASTAL ALABAMA

CITY           SKY/WX    TMP DP  RH WIND       PRES   REMARKS
MOBILE REG APT MOSUNNY   57  36  45 W14G21    29.99F
BROOKLEY FIELD SUNNY     58  37  45 W12G17    30.01F
USA CAMPUS*    NOT AVBL
DOG RIVER*     NOT AVBL


CITY           SKY/WX    TMP DP  RH WIND       PRES   REMARKS
MOUNT VERNON*  NOT AVBL
SARALAND*      NOT AVBL
BAY MINETTE*   NOT AVBL
LOXLEY*        NOT AVBL
ROBERTSDALE*   NOT AVBL
FAIRHOPE*      NOT AVBL
ELBERTA*       NOT AVBL
FOLEY*         NOT AVBL
GRAND BAY*     NOT AVBL
DAUPHIN ISLND* NOT AVBL
BON SCOUR NWR* NOT AVBL
GULF SHORES    SUNNY     57  45  64 W24       29.99F

$$

ALZ051>060-081800-
INTERIOR SOUTHWEST AND SOUTH CENTRAL ALABAMA

CITY           SKY/WX    TMP DP  RH WIND       PRES   REMARKS
GREENVILLE     MOSUNNY   53  30  41 W9        29.90F
EVERGREEN      SUNNY     55  34  45 SW9       29.95F
CASTLEBERRY*   NOT AVBL
ATMORE*        NOT AVBL
DIXIE*         NOT AVBL
ANDALUSIA/OPP  SUNNY     58  34  40 NW13      29.94
ANDALUSIA*     NOT AVBL
FLORALA APT    SUNNY     57  38  48 SW9G16    29.94F
FLORALA*       NOT AVBL

$$

FLZ001>006-081800-
WESTERN FLORIDA PANHANDLE

CITY           SKY/WX    TMP DP  RH WIND       PRES   REMARKS
PENSACOLA      SUNNY     60  42  51 W18       29.97F
NAS PENSACOLA  MOSUNNY   60  42  51 W14G26    29.98F
MILTON         MOSUNNY   59  38  45 W17G23    29.96F
WHTNG S FIELD  MOSUNNY   61  39  44 SW10G20   29.96F


CITY           SKY/WX    TMP DP  RH WIND       PRES   REMARKS
WALNUT HILL*   NOT AVBL
JAY*           NOT AVBL
CRESTVIEW      SUNNY     60  39  45 SW14G22   29.95F
VALPARAISO     MOSUNNY   61  47  61 SW18G25   29.94
DESTIN         MOSUNNY   62  48  60 W9G25     29.96F

$$

MSZ076-079-081800-
INTERIOR SOUTHEAST MISSISSIPPI

CITY           SKY/WX    TMP DP  RH WIND       PRES   REMARKS
LEAKESVILLE*   NOT AVBL
AGRICOLA*      NOT AVBL

$$

MARINE OBSERVATIONS

STATION/POSITION TIME  TEMP    WIND        PRES    WAVE
                       AIR SEA DIR/SP/G            HT/PER
                 (UTC) (F)     (DEG/KT/KT) (MB)    (FT/S)
PASCAGOULA       1600   55     270/ 13/ 18 1017.4F
PETIT BOIS ISLND 1600   53     270/ 22/ 26 1018.3F
KATRINA CUT      1600   53     280/ 25       N/A
CEDAR POINT      1600   52     270/ 22     1016.6F
E DAUPHIN ISLAND 1700   55     250/ 18/ 25 1015.9F
MIDDLE BAY LIGHT 1600          260/ 14     1016.3F
USCG MOBILE BAY  1600   53 55  310/ 11/ 15 1017.3F
STATE DOCKS      1600   57 53              1016.6F
MEAHER PARK      1600   52     260/  8     1016.9F
WEEKS BAY        1500   55                   N/A
FORT MORGAN      1600   54     280/ 23/ 26 1016.3F
12 S ORANGE BCH  1650   57 62  260/ 25/ 29 1015.3F   5/ 5
PENSACOLA BAY    1600   60 51  240/ 11/ 18 1016.1F

$$

SELECTED LOCATIONS ACROSS THE REGION

CITY           SKY/WX    TMP DP  RH WIND       PRES   REMARKS
NEW ORLEANS    MOSUNNY   60  25  26 NW18G26   30.11F
GULFPORT       SUNNY     58  29  33 NW18G28   30.03F
PASCAGOULA AP  SUNNY     60  34  37 W8G18     30.01F
PASCAGOULA*    NOT AVBL
HATTIESBURG    MOSUNNY   55  28  35 NW22      30.03F
LAUREL         MOSUNNY   54  25  32 W15G23    30.03F
MERIDIAN       SUNNY     53  22  29 NW15G28   29.98F
JACKSON        PTSUNNY   51  22  31 NW17G28   30.03F
MONTGOMERY     CLOUDY    53  33  46 W13       29.92F
TROY           MOSUNNY   55  34  45 NW8       29.92F
KINSTON*       NOT AVBL
GENEVA*        NOT AVBL
ASHFORD*       NOT AVBL
DOTHAN         SUNNY     56  37  49 W13       29.94F
PANAMA CITY    MOSUNNY   61  45  55 SW21G26   29.95F

$$




USA.gov is the U.S. government's official web portal to all federal, state and local government web resources and services.